Data start date =,1/1/1935
Data end date/time =,5/5/2024 12:00
Vertical Datum =,NGVD29
""
Date/Time,MissHW_Pokegama-Tailwater
,Elev
UTC,ft
,Ave
1/2/1935 12:00,1267.42
1/3/1935 12:00,1267.46
1/4/1935 12:00,1267.44
1/5/1935 12:00,1267.28
1/6/1935 12:00,1267.38
1/7/1935 12:00,1267.58
1/8/1935 12:00,1267.62
1/9/1935 12:00,1267.50
1/10/1935 12:00,1267.54
1/11/1935 12:00,1267.46
1/12/1935 12:00,1267.60
1/13/1935 12:00,1267.62
1/14/1935 12:00,1267.76
1/15/1935 12:00,1267.74
1/16/1935 12:00,1267.72
1/17/1935 12:00,1267.62
1/18/1935 12:00,1267.44
1/19/1935 12:00,1267.60
1/20/1935 12:00,1267.42
1/21/1935 12:00,1267.72
1/22/1935 12:00,1267.76
1/23/1935 12:00,1267.47
1/24/1935 12:00,1267.56
1/25/1935 12:00,1267.66
1/26/1935 12:00,1267.62
1/27/1935 12:00,1267.62
1/28/1935 12:00,1267.88
1/29/1935 12:00,1267.76
1/30/1935 12:00,1267.88
1/31/1935 12:00,1267.80
2/2/1935 12:00,1267.72
2/3/1935 12:00,1267.22
2/4/1935 12:00,1267.82
2/5/1935 12:00,1267.82
2/6/1935 12:00,1267.54
2/7/1935 12:00,1267.54
2/8/1935 12:00,1267.52
2/9/1935 12:00,1267.40
2/10/1935 12:00,1267.32
2/11/1935 12:00,1267.52
2/12/1935 12:00,1267.52
2/13/1935 12:00,1267.42
2/14/1935 12:00,1267.30
2/15/1935 12:00,1267.46
2/16/1935 12:00,1267.32
2/17/1935 12:00,1267.44
2/18/1935 12:00,1267.66
2/19/1935 12:00,1267.76
2/20/1935 12:00,1267.62
2/21/1935 12:00,1267.62
2/22/1935 12:00,1267.50
2/23/1935 12:00,1267.58
2/24/1935 12:00,1267.28
2/25/1935 12:00,1267.82
2/26/1935 12:00,1267.66
2/27/1935 12:00,1267.82
2/28/1935 12:00,1267.62
3/1/1935 12:00,1267.72
3/2/1935 12:00,1267.54
3/3/1935 12:00,1267.28
3/4/1935 12:00,1267.62
3/5/1935 12:00,1267.42
3/6/1935 12:00,1267.58
3/7/1935 12:00,1267.62
3/8/1935 12:00,1267.58
3/9/1935 12:00,1267.68
3/10/1935 12:00,1267.32
3/11/1935 12:00,1267.66
3/12/1935 12:00,1267.50
3/13/1935 12:00,1267.58
3/14/1935 12:00,1267.56
3/15/1935 12:00,1267.58
3/16/1935 12:00,1267.52
3/17/1935 12:00,1267.44
3/18/1935 12:00,1267.46
3/19/1935 12:00,1267.58
3/20/1935 12:00,1267.62
3/21/1935 12:00,1267.54
3/22/1935 12:00,1267.54
3/23/1935 12:00,1267.60
3/24/1935 12:00,1267.46
3/25/1935 12:00,1267.72
3/26/1935 12:00,1267.82
3/27/1935 12:00,1268.02
3/28/1935 12:00,1267.66
3/29/1935 12:00,1267.72
3/30/1935 12:00,1267.54
3/31/1935 12:00,1267.22
4/1/1935 12:00,1267.92
4/2/1935 12:00,1267.62
4/3/1935 12:00,1267.42
4/4/1935 12:00,1267.90
4/5/1935 12:00,1267.80
4/6/1935 12:00,1267.54
4/7/1935 12:00,1267.42
4/8/1935 12:00,1267.84
4/9/1935 12:00,1267.72
4/10/1935 12:00,1267.82
4/11/1935 12:00,1267.78
4/12/1935 12:00,1267.76
4/13/1935 12:00,1267.32
4/14/1935 12:00,1266.38
4/15/1935 12:00,1267.36
4/16/1935 12:00,1267.32
4/17/1935 12:00,1267.50
4/18/1935 12:00,1267.60
4/19/1935 12:00,1267.38
4/20/1935 12:00,1267.22
4/21/1935 12:00,1266.36
4/22/1935 12:00,1267.14
4/23/1935 12:00,1267.24
4/24/1935 12:00,1267.40
4/25/1935 12:00,1267.34
4/26/1935 12:00,1267.42
4/27/1935 12:00,1267.52
4/28/1935 12:00,1266.84
4/29/1935 12:00,1267.40
4/30/1935 12:00,1267.42
5/1/1935 12:00,1267.52
5/2/1935 12:00,1267.22
5/3/1935 12:00,1267.40
5/4/1935 12:00,1267.32
5/5/1935 12:00,1267.10
5/6/1935 12:00,1267.70
5/7/1935 12:00,1267.50
5/8/1935 12:00,1267.22
5/9/1935 12:00,1267.72
5/10/1935 12:00,1267.64
5/11/1935 12:00,1267.70
5/13/1935 12:00,1267.78
5/14/1935 12:00,1267.72
5/15/1935 12:00,1267.58
5/16/1935 12:00,1267.76
5/17/1935 12:00,1267.64
5/18/1935 12:00,1267.62
5/19/1935 12:00,1267.10
5/20/1935 12:00,1267.56
5/21/1935 12:00,1267.82
5/22/1935 12:00,1267.66
5/23/1935 12:00,1267.78
5/24/1935 12:00,1267.52
5/25/1935 12:00,1267.72
5/26/1935 12:00,1266.92
5/27/1935 12:00,1267.48
5/28/1935 12:00,1267.48
5/29/1935 12:00,1267.68
5/30/1935 12:00,1267.60
5/31/1935 12:00,1267.72
6/1/1935 12:00,1267.72
6/2/1935 12:00,1266.72
6/3/1935 12:00,1267.56
6/4/1935 12:00,1267.78
6/5/1935 12:00,1267.62
6/6/1935 12:00,1267.62
6/7/1935 12:00,1267.62
6/8/1935 12:00,1267.64
6/9/1935 12:00,1266.72
6/10/1935 12:00,1267.52
6/11/1935 12:00,1267.76
6/12/1935 12:00,1267.70
6/13/1935 12:00,1267.42
6/14/1935 12:00,1267.52
6/15/1935 12:00,1267.52
6/16/1935 12:00,1267.52
6/17/1935 12:00,1267.78
6/18/1935 12:00,1267.62
6/19/1935 12:00,1267.78
6/20/1935 12:00,1267.62
6/21/1935 12:00,1267.62
6/23/1935 12:00,1267.22
6/24/1935 12:00,1267.86
6/25/1935 12:00,1267.52
6/26/1935 12:00,1267.66
6/27/1935 12:00,1267.66
6/28/1935 12:00,1267.72
6/29/1935 12:00,1267.62
6/30/1935 12:00,1267.24
7/1/1935 12:00,1267.78
7/2/1935 12:00,1267.78
7/3/1935 12:00,1267.12
7/5/1935 12:00,1267.48
7/6/1935 12:00,1267.72
7/7/1935 12:00,1266.88
7/8/1935 12:00,1267.48
7/9/1935 12:00,1267.78
7/10/1935 12:00,1267.64
7/11/1935 12:00,1267.76
7/12/1935 12:00,1267.52
7/13/1935 12:00,1267.70
7/14/1935 12:00,1267.12
7/15/1935 12:00,1267.76
7/16/1935 12:00,1267.66
7/17/1935 12:00,1267.76
7/18/1935 12:00,1267.54
7/19/1935 12:00,1267.54
7/20/1935 12:00,1267.62
7/21/1935 12:00,1267.14
7/22/1935 12:00,1267.78
7/23/1935 12:00,1267.80
7/24/1935 12:00,1267.46
7/25/1935 12:00,1267.58
7/26/1935 12:00,1267.62
7/27/1935 12:00,1267.54
7/28/1935 12:00,1267.20
7/29/1935 12:00,1267.80
7/30/1935 12:00,1267.70
7/31/1935 12:00,1267.68
8/1/1935 12:00,1267.80
8/2/1935 12:00,1267.72
8/3/1935 12:00,1266.52
8/4/1935 12:00,1266.90
8/5/1935 12:00,1267.42
8/6/1935 12:00,1267.58
8/7/1935 12:00,1267.76
8/8/1935 12:00,1267.82
8/9/1935 12:00,1267.62
8/10/1935 12:00,1266.38
8/11/1935 12:00,1266.82
8/12/1935 12:00,1267.92
8/13/1935 12:00,1267.62
8/14/1935 12:00,1267.72
8/15/1935 12:00,1267.58
8/16/1935 12:00,1267.50
8/17/1935 12:00,1267.30
8/18/1935 12:00,1266.60
8/19/1935 12:00,1267.70
8/20/1935 12:00,1267.70
8/21/1935 12:00,1267.84
8/22/1935 12:00,1267.66
8/23/1935 12:00,1267.72
8/24/1935 12:00,1267.60
8/25/1935 12:00,1266.78
8/26/1935 12:00,1267.68
8/27/1935 12:00,1267.54
8/28/1935 12:00,1267.58
8/29/1935 12:00,1267.56
8/30/1935 12:00,1267.60
8/31/1935 12:00,1267.22
9/1/1935 12:00,1266.84
9/2/1935 12:00,1268.02
9/3/1935 12:00,1267.90
9/4/1935 12:00,1267.78
9/5/1935 12:00,1267.88
9/6/1935 12:00,1267.62
9/7/1935 12:00,1267.38
9/8/1935 12:00,1266.80
9/9/1935 12:00,1267.74
9/10/1935 12:00,1267.56
9/11/1935 12:00,1267.60
9/12/1935 12:00,1267.68
9/13/1935 12:00,1267.52
9/14/1935 12:00,1267.54
9/15/1935 12:00,1266.74
9/16/1935 12:00,1267.88
9/17/1935 12:00,1267.66
9/18/1935 12:00,1267.60
9/19/1935 12:00,1267.62
9/20/1935 12:00,1267.56
9/21/1935 12:00,1267.58
9/22/1935 12:00,1266.70
9/23/1935 12:00,1267.52
9/24/1935 12:00,1267.38
9/25/1935 12:00,1267.58
9/26/1935 12:00,1267.38
9/27/1935 12:00,1267.60
9/28/1935 12:00,1267.80
9/29/1935 12:00,1267.30
9/30/1935 12:00,1267.64
10/1/1935 12:00,1267.22
10/2/1935 12:00,1267.50
10/3/1935 12:00,1267.60
10/4/1935 12:00,1267.80
10/5/1935 12:00,1267.38
10/6/1935 12:00,1266.96
10/7/1935 12:00,1267.30
10/8/1935 12:00,1267.28
10/9/1935 12:00,1267.32
10/10/1935 12:00,1267.50
10/11/1935 12:00,1267.76
10/12/1935 12:00,1267.68
10/13/1935 12:00,1267.42
10/14/1935 12:00,1267.54
10/15/1935 12:00,1267.92
10/16/1935 12:00,1267.88
10/17/1935 12:00,1267.36
10/18/1935 12:00,1267.66
10/19/1935 12:00,1267.68
10/20/1935 12:00,1267.30
10/21/1935 12:00,1267.58
10/22/1935 12:00,1267.64
10/23/1935 12:00,1267.56
10/24/1935 12:00,1267.54
10/25/1935 12:00,1267.30
10/26/1935 12:00,1267.50
10/27/1935 12:00,1267.62
10/28/1935 12:00,1267.70
10/29/1935 12:00,1267.62
10/30/1935 12:00,1267.56
10/31/1935 12:00,1267.58
11/1/1935 12:00,1267.60
11/2/1935 12:00,1267.48
11/3/1935 12:00,1267.40
11/4/1935 12:00,1267.88
11/5/1935 12:00,1267.86
11/6/1935 12:00,1267.76
11/7/1935 12:00,1267.66
11/8/1935 12:00,1267.58
11/9/1935 12:00,1267.54
11/10/1935 12:00,1267.32
11/11/1935 12:00,1267.58
11/12/1935 12:00,1267.66
11/13/1935 12:00,1267.48
11/14/1935 12:00,1267.39
11/15/1935 12:00,1267.43
11/16/1935 12:00,1267.47
11/17/1935 12:00,1267.56
11/18/1935 12:00,1267.82
11/19/1935 12:00,1267.76
11/20/1935 12:00,1267.72
11/21/1935 12:00,1267.62
11/22/1935 12:00,1267.57
11/23/1935 12:00,1267.51
11/24/1935 12:00,1267.58
11/25/1935 12:00,1267.56
11/26/1935 12:00,1267.80
11/27/1935 12:00,1267.80
11/28/1935 12:00,1268.08
11/29/1935 12:00,1267.64
11/30/1935 12:00,1267.58
12/1/1935 12:00,1267.58
12/2/1935 12:00,1267.92
12/3/1935 12:00,1267.88
12/4/1935 12:00,1267.86
12/5/1935 12:00,1267.82
12/6/1935 12:00,1267.62
12/7/1935 12:00,1267.46
12/8/1935 12:00,1267.82
12/9/1935 12:00,1267.92
12/10/1935 12:00,1267.54
12/11/1935 12:00,1267.98
12/12/1935 12:00,1267.80
12/13/1935 12:00,1267.96
12/14/1935 12:00,1267.80
12/15/1935 12:00,1267.50
12/16/1935 12:00,1267.80
12/17/1935 12:00,1267.72
12/18/1935 12:00,1267.58
12/19/1935 12:00,1267.70
12/20/1935 12:00,1267.50
12/21/1935 12:00,1267.60
12/22/1935 12:00,1267.54
12/23/1935 12:00,1267.62
12/24/1935 12:00,1266.64
12/25/1935 12:00,1267.46
12/26/1935 12:00,1267.80
12/27/1935 12:00,1267.90
12/28/1935 12:00,1267.62
12/29/1935 12:00,1267.53
12/30/1935 12:00,1267.38
12/31/1935 12:00,1267.59
1/1/1936 12:00,1267.74
1/2/1936 12:00,1267.56
1/3/1936 12:00,1267.52
1/4/1936 12:00,1267.46
1/5/1936 12:00,1267.24
1/6/1936 12:00,1267.48
1/7/1936 12:00,1266.96
1/8/1936 12:00,1267.22
1/9/1936 12:00,1267.50
1/10/1936 12:00,1267.70
1/11/1936 12:00,1267.70
1/12/1936 12:00,1267.42
1/13/1936 12:00,1267.58
1/14/1936 12:00,1267.52
1/15/1936 12:00,1267.54
1/16/1936 12:00,1267.70
1/17/1936 12:00,1267.64
1/18/1936 12:00,1267.28
1/19/1936 12:00,1267.04
1/20/1936 12:00,1267.28
1/21/1936 12:00,1267.42
1/22/1936 12:00,1267.84
1/23/1936 12:00,1267.54
1/24/1936 12:00,1267.40
1/25/1936 12:00,1266.92
1/26/1936 12:00,1266.88
1/27/1936 12:00,1267.16
1/28/1936 12:00,1267.22
1/29/1936 12:00,1267.32
1/30/1936 12:00,1266.88
1/31/1936 12:00,1266.96
2/1/1936 12:00,1267.08
2/2/1936 12:00,1267.00
2/3/1936 12:00,1266.94
2/4/1936 12:00,1267.02
2/5/1936 12:00,1267.14
2/6/1936 12:00,1267.30
2/7/1936 12:00,1266.96
2/8/1936 12:00,1266.94
2/9/1936 12:00,1266.70
2/10/1936 12:00,1266.92
2/11/1936 12:00,1267.01
2/12/1936 12:00,1267.02
2/13/1936 12:00,1267.06
2/14/1936 12:00,1267.34
2/15/1936 12:00,1267.44
2/16/1936 12:00,1267.02
2/17/1936 12:00,1267.24
2/18/1936 12:00,1267.30
2/19/1936 12:00,1266.80
2/20/1936 12:00,1266.78
2/21/1936 12:00,1266.90
2/22/1936 12:00,1266.98
2/23/1936 12:00,1266.72
2/24/1936 12:00,1266.88
2/25/1936 12:00,1267.76
2/26/1936 12:00,1267.64
2/27/1936 12:00,1266.92
2/28/1936 12:00,1267.06
2/29/1936 12:00,1266.86
3/1/1936 12:00,1266.98
3/2/1936 12:00,1267.68
3/3/1936 12:00,1267.66
3/4/1936 12:00,1267.26
3/5/1936 12:00,1267.24
3/6/1936 12:00,1267.34
3/7/1936 12:00,1267.08
3/8/1936 12:00,1266.96
3/9/1936 12:00,1267.30
3/10/1936 12:00,1267.68
3/11/1936 12:00,1267.54
3/12/1936 12:00,1267.64
3/13/1936 12:00,1267.36
3/14/1936 12:00,1267.40
3/15/1936 12:00,1267.10
3/16/1936 12:00,1267.50
3/17/1936 12:00,1267.62
3/18/1936 12:00,1267.34
3/19/1936 12:00,1267.36
3/20/1936 12:00,1267.00
3/21/1936 12:00,1267.02
3/22/1936 12:00,1267.02
3/23/1936 12:00,1267.30
3/24/1936 12:00,1267.02
3/25/1936 12:00,1267.26
3/26/1936 12:00,1267.40
3/27/1936 12:00,1267.16
3/28/1936 12:00,1267.28
3/29/1936 12:00,1267.18
3/30/1936 12:00,1267.52
3/31/1936 12:00,1267.56
4/1/1936 12:00,1267.52
4/2/1936 12:00,1267.16
4/3/1936 12:00,1267.06
4/4/1936 12:00,1267.18
4/5/1936 12:00,1266.84
4/6/1936 12:00,1267.18
4/7/1936 12:00,1267.24
4/8/1936 12:00,1267.22
4/9/1936 12:00,1267.20
4/10/1936 12:00,1267.06
4/11/1936 12:00,1267.76
4/12/1936 12:00,1267.16
4/13/1936 12:00,1267.62
4/14/1936 12:00,1267.52
4/15/1936 12:00,1267.72
4/16/1936 12:00,1267.70
4/17/1936 12:00,1267.80
4/18/1936 12:00,1267.52
4/19/1936 12:00,1267.44
4/20/1936 12:00,1267.68
4/21/1936 12:00,1267.34
4/22/1936 12:00,1267.80
4/23/1936 12:00,1267.44
4/24/1936 12:00,1267.36
4/25/1936 12:00,1267.58
4/26/1936 12:00,1267.52
4/27/1936 12:00,1267.82
4/28/1936 12:00,1267.38
4/29/1936 12:00,1267.46
4/30/1936 12:00,1267.44
5/1/1936 12:00,1267.46
5/2/1936 12:00,1267.60
5/3/1936 12:00,1267.26
5/4/1936 12:00,1267.48
5/5/1936 12:00,1267.68
5/6/1936 12:00,1267.58
5/7/1936 12:00,1266.90
5/8/1936 12:00,1267.48
5/9/1936 12:00,1267.82
5/10/1936 12:00,1267.60
5/11/1936 12:00,1267.52
5/12/1936 12:00,1267.72
5/13/1936 12:00,1267.62
5/14/1936 12:00,1267.54
5/15/1936 12:00,1267.36
5/16/1936 12:00,1267.66
5/17/1936 12:00,1267.14
5/18/1936 12:00,1267.20
5/19/1936 12:00,1267.80
5/20/1936 12:00,1267.76
5/21/1936 12:00,1267.80
5/22/1936 12:00,1267.78
5/23/1936 12:00,1267.66
5/24/1936 12:00,1267.42
5/25/1936 12:00,1267.58
5/26/1936 12:00,1267.66
5/27/1936 12:00,1267.82
5/28/1936 12:00,1267.88
5/29/1936 12:00,1267.46
5/30/1936 12:00,1267.52
5/31/1936 12:00,1266.96
6/1/1936 12:00,1267.42
6/2/1936 12:00,1267.82
6/3/1936 12:00,1267.84
6/4/1936 12:00,1267.80
6/5/1936 12:00,1267.78
6/6/1936 12:00,1267.84
6/7/1936 12:00,1266.84
6/8/1936 12:00,1268.02
6/9/1936 12:00,1267.74
6/10/1936 12:00,1267.70
6/11/1936 12:00,1267.58
6/12/1936 12:00,1267.82
6/13/1936 12:00,1267.50
6/14/1936 12:00,1266.90
6/15/1936 12:00,1267.86
6/16/1936 12:00,1267.80
6/17/1936 12:00,1267.78
6/18/1936 12:00,1267.70
6/19/1936 12:00,1267.56
6/20/1936 12:00,1267.48
6/21/1936 12:00,1266.92
6/22/1936 12:00,1267.66
6/23/1936 12:00,1267.60
6/24/1936 12:00,1267.54
6/25/1936 12:00,1267.68
6/26/1936 12:00,1267.56
6/27/1936 12:00,1267.52
6/28/1936 12:00,1267.16
6/29/1936 12:00,1267.80
6/30/1936 12:00,1266.68
7/1/1936 12:00,1267.14
7/2/1936 12:00,1267.16
7/3/1936 12:00,1267.04
7/4/1936 12:00,1266.62
7/5/1936 12:00,1267.62
7/6/1936 12:00,1267.66
7/7/1936 12:00,1266.66
7/8/1936 12:00,1266.60
7/9/1936 12:00,1266.94
7/10/1936 12:00,1267.92
7/11/1936 12:00,1267.90
7/12/1936 12:00,1267.72
7/13/1936 12:00,1267.08
7/14/1936 12:00,1267.66
7/15/1936 12:00,1267.72
7/16/1936 12:00,1267.62
7/17/1936 12:00,1267.46
7/18/1936 12:00,1267.24
7/19/1936 12:00,1266.78
7/20/1936 12:00,1267.26
7/21/1936 12:00,1267.64
7/22/1936 12:00,1267.98
7/23/1936 12:00,1267.72
7/24/1936 12:00,1267.22
7/25/1936 12:00,1267.24
7/26/1936 12:00,1266.82
7/27/1936 12:00,1266.98
7/28/1936 12:00,1267.02
7/29/1936 12:00,1267.16
7/30/1936 12:00,1267.32
7/31/1936 12:00,1267.44
8/1/1936 12:00,1267.46
8/2/1936 12:00,1267.02
8/3/1936 12:00,1267.80
8/4/1936 12:00,1267.42
8/5/1936 12:00,1267.36
8/6/1936 12:00,1267.32
8/7/1936 12:00,1267.42
8/8/1936 12:00,1267.28
8/9/1936 12:00,1266.94
8/10/1936 12:00,1267.62
8/11/1936 12:00,1267.52
8/12/1936 12:00,1267.62
8/13/1936 12:00,1267.36
8/14/1936 12:00,1267.46
8/15/1936 12:00,1267.26
8/16/1936 12:00,1267.14
8/17/1936 12:00,1267.66
8/18/1936 12:00,1267.34
8/19/1936 12:00,1267.16
8/20/1936 12:00,1267.24
8/21/1936 12:00,1267.32
8/22/1936 12:00,1267.34
8/23/1936 12:00,1265.52
8/24/1936 12:00,1266.12
8/25/1936 12:00,1266.52
8/26/1936 12:00,1267.12
8/27/1936 12:00,1267.26
8/28/1936 12:00,1267.10
8/29/1936 12:00,1267.30
8/30/1936 12:00,1267.24
8/31/1936 12:00,1267.26
9/1/1936 12:00,1267.38
9/2/1936 12:00,1267.26
9/3/1936 12:00,1267.38
9/4/1936 12:00,1267.40
9/5/1936 12:00,1267.40
9/6/1936 12:00,1267.56
9/7/1936 12:00,1267.46
9/8/1936 12:00,1267.76
9/9/1936 12:00,1267.26
9/10/1936 12:00,1266.84
9/11/1936 12:00,1267.24
9/12/1936 12:00,1267.22
9/13/1936 12:00,1267.38
9/14/1936 12:00,1267.72
9/15/1936 12:00,1267.56
9/16/1936 12:00,1267.52
9/17/1936 12:00,1267.56
9/18/1936 12:00,1267.64
9/19/1936 12:00,1267.66
9/20/1936 12:00,1267.06
9/21/1936 12:00,1267.56
9/22/1936 12:00,1267.54
9/23/1936 12:00,1267.32
9/24/1936 12:00,1267.50
9/25/1936 12:00,1267.44
9/26/1936 12:00,1267.34
9/27/1936 12:00,1267.32
9/28/1936 12:00,1267.56
9/29/1936 12:00,1267.54
9/30/1936 12:00,1267.60
10/1/1936 12:00,1267.42
10/2/1936 12:00,1267.60
10/3/1936 12:00,1267.16
10/4/1936 12:00,1267.12
10/5/1936 12:00,1267.64
10/6/1936 12:00,1267.74
10/7/1936 12:00,1267.72
10/8/1936 12:00,1267.72
10/9/1936 12:00,1267.56
10/10/1936 12:00,1266.42
10/11/1936 12:00,1266.28
10/12/1936 12:00,1266.10
10/13/1936 12:00,1265.86
10/14/1936 12:00,1266.20
10/15/1936 12:00,1266.16
10/16/1936 12:00,1266.16
10/17/1936 12:00,1266.20
10/18/1936 12:00,1266.16
10/19/1936 12:00,1265.96
10/20/1936 12:00,1266.00
10/21/1936 12:00,1266.10
10/22/1936 12:00,1266.10
10/23/1936 12:00,1266.24
10/24/1936 12:00,1266.42
10/25/1936 12:00,1265.98
10/26/1936 12:00,1266.16
10/27/1936 12:00,1266.18
10/28/1936 12:00,1265.98
10/29/1936 12:00,1266.00
10/30/1936 12:00,1266.06
10/31/1936 12:00,1266.08
11/1/1936 12:00,1266.10
11/2/1936 12:00,1266.20
11/3/1936 12:00,1266.16
11/4/1936 12:00,1266.14
11/5/1936 12:00,1266.14
11/6/1936 12:00,1266.00
11/7/1936 12:00,1265.96
11/8/1936 12:00,1265.80
11/9/1936 12:00,1265.86
11/10/1936 12:00,1265.92
11/11/1936 12:00,1265.98
11/12/1936 12:00,1266.03
11/13/1936 12:00,1266.09
11/14/1936 12:00,1266.15
11/15/1936 12:00,1266.21
11/16/1936 12:00,1266.29
11/17/1936 12:00,1266.33
11/18/1936 12:00,1266.70
11/19/1936 12:00,1266.86
11/20/1936 12:00,1266.99
11/21/1936 12:00,1266.88
11/22/1936 12:00,1266.42
11/23/1936 12:00,1266.74
11/24/1936 12:00,1266.81
11/25/1936 12:00,1266.78
11/26/1936 12:00,1266.74
11/27/1936 12:00,1266.75
11/28/1936 12:00,1266.72
11/29/1936 12:00,1267.07
11/30/1936 12:00,1267.09
12/1/1936 12:00,1267.05
12/2/1936 12:00,1267.16
12/3/1936 12:00,1267.26
12/4/1936 12:00,1267.43
12/5/1936 12:00,1267.59
12/6/1936 12:00,1267.22
12/7/1936 12:00,1267.37
12/8/1936 12:00,1267.29
12/9/1936 12:00,1267.55
12/10/1936 12:00,1267.49
12/11/1936 12:00,1267.37
12/12/1936 12:00,1267.34
12/13/1936 12:00,1267.44
12/14/1936 12:00,1267.35
12/15/1936 12:00,1267.64
12/16/1936 12:00,1267.31
12/17/1936 12:00,1267.51
12/18/1936 12:00,1267.31
12/19/1936 12:00,1267.28
12/20/1936 12:00,1267.13
12/21/1936 12:00,1267.04
12/22/1936 12:00,1266.97
12/23/1936 12:00,1267.02
12/24/1936 12:00,1267.06
12/25/1936 12:00,1267.44
12/26/1936 12:00,1267.76
12/27/1936 12:00,1267.71
12/28/1936 12:00,1267.66
12/29/1936 12:00,1267.61
12/30/1936 12:00,1267.59
12/31/1936 12:00,1267.66
1/1/1937 12:00,1267.64
1/2/1937 12:00,1267.64
1/3/1937 12:00,1267.22
1/4/1937 12:00,1267.75
1/5/1937 12:00,1267.60
1/6/1937 12:00,1267.64
1/7/1937 12:00,1267.58
1/8/1937 12:00,1267.74
1/9/1937 12:00,1267.44
1/10/1937 12:00,1266.64
1/11/1937 12:00,1266.60
1/12/1937 12:00,1266.66
1/13/1937 12:00,1266.69
1/14/1937 12:00,1266.71
1/15/1937 12:00,1266.72
1/16/1937 12:00,1266.80
1/17/1937 12:00,1266.56
1/18/1937 12:00,1266.62
1/19/1937 12:00,1266.68
1/20/1937 12:00,1266.54
1/21/1937 12:00,1266.72
1/22/1937 12:00,1266.93
1/23/1937 12:00,1266.94
1/24/1937 12:00,1267.32
1/25/1937 12:00,1267.56
1/26/1937 12:00,1267.57
1/27/1937 12:00,1267.71
1/28/1937 12:00,1267.80
1/29/1937 12:00,1267.67
1/30/1937 12:00,1267.78
1/31/1937 12:00,1267.40
2/1/1937 12:00,1267.46
2/2/1937 12:00,1267.44
2/3/1937 12:00,1267.36
2/4/1937 12:00,1267.27
2/5/1937 12:00,1267.56
2/6/1937 12:00,1267.76
2/7/1937 12:00,1267.26
2/8/1937 12:00,1267.55
2/9/1937 12:00,1267.40
2/10/1937 12:00,1267.24
2/11/1937 12:00,1267.39
2/12/1937 12:00,1267.77
2/13/1937 12:00,1267.75
2/14/1937 12:00,1266.66
2/15/1937 12:00,1267.42
2/16/1937 12:00,1267.80
2/17/1937 12:00,1267.80
2/18/1937 12:00,1267.60
2/19/1937 12:00,1267.42
2/20/1937 12:00,1267.62
2/21/1937 12:00,1267.22
2/22/1937 12:00,1267.74
2/23/1937 12:00,1267.54
2/24/1937 12:00,1267.74
2/25/1937 12:00,1267.74
2/26/1937 12:00,1267.50
2/27/1937 12:00,1267.72
2/28/1937 12:00,1267.72
3/1/1937 12:00,1267.08
3/2/1937 12:00,1267.36
3/3/1937 12:00,1267.20
3/4/1937 12:00,1267.38
3/5/1937 12:00,1267.46
3/6/1937 12:00,1267.54
3/7/1937 12:00,1267.38
3/8/1937 12:00,1267.20
3/9/1937 12:00,1267.28
3/10/1937 12:00,1267.26
3/11/1937 12:00,1267.26
3/12/1937 12:00,1266.98
3/13/1937 12:00,1267.38
3/14/1937 12:00,1267.70
3/15/1937 12:00,1267.62
3/16/1937 12:00,1267.44
3/17/1937 12:00,1267.47
3/18/1937 12:00,1267.40
3/19/1937 12:00,1267.24
3/20/1937 12:00,1267.14
3/21/1937 12:00,1267.08
3/22/1937 12:00,1267.28
3/23/1937 12:00,1267.20
3/24/1937 12:00,1267.09
3/25/1937 12:00,1267.03
3/26/1937 12:00,1267.00
3/27/1937 12:00,1267.22
3/28/1937 12:00,1267.44
3/29/1937 12:00,1267.36
3/30/1937 12:00,1267.42
3/31/1937 12:00,1267.34
4/1/1937 12:00,1267.30
4/2/1937 12:00,1267.28
4/3/1937 12:00,1267.27
4/4/1937 12:00,1267.30
4/5/1937 12:00,1267.39
4/6/1937 12:00,1267.26
4/7/1937 12:00,1267.24
4/8/1937 12:00,1267.30
4/9/1937 12:00,1267.30
4/10/1937 12:00,1267.34
4/11/1937 12:00,1267.42
4/12/1937 12:00,1267.48
4/13/1937 12:00,1267.62
4/14/1937 12:00,1267.34
4/15/1937 12:00,1267.29
4/16/1937 12:00,1267.26
4/17/1937 12:00,1267.12
4/18/1937 12:00,1267.04
4/19/1937 12:00,1267.22
4/20/1937 12:00,1267.32
4/21/1937 12:00,1267.29
4/22/1937 12:00,1267.33
4/23/1937 12:00,1267.35
4/24/1937 12:00,1267.22
4/25/1937 12:00,1267.30
4/26/1937 12:00,1267.37
4/27/1937 12:00,1267.20
4/28/1937 12:00,1267.15
4/29/1937 12:00,1267.10
4/30/1937 12:00,1267.04
5/2/1937 12:00,1266.98
5/3/1937 12:00,1266.92
5/4/1937 12:00,1266.86
5/5/1937 12:00,1266.82
5/6/1937 12:00,1266.74
5/7/1937 12:00,1266.64
5/8/1937 12:00,1266.54
5/9/1937 12:00,1266.44
5/10/1937 12:00,1266.36
5/11/1937 12:00,1266.36
5/12/1937 12:00,1267.17
5/13/1937 12:00,1267.22
5/14/1937 12:00,1267.62
5/15/1937 12:00,1267.52
5/16/1937 12:00,1267.60
5/17/1937 12:00,1267.80
5/18/1937 12:00,1267.62
5/19/1937 12:00,1266.92
5/20/1937 12:00,1267.10
5/21/1937 12:00,1267.30
5/22/1937 12:00,1267.44
5/23/1937 12:00,1266.97
5/24/1937 12:00,1267.52
5/25/1937 12:00,1267.58
5/26/1937 12:00,1267.39
5/27/1937 12:00,1267.68
5/28/1937 12:00,1267.56
5/29/1937 12:00,1267.80
5/30/1937 12:00,1267.58
5/31/1937 12:00,1267.50
6/1/1937 12:00,1267.62
6/2/1937 12:00,1267.67
6/3/1937 12:00,1267.62
6/4/1937 12:00,1267.40
6/5/1937 12:00,1267.76
6/6/1937 12:00,1267.42
6/7/1937 12:00,1267.36
6/8/1937 12:00,1267.66
6/9/1937 12:00,1267.64
6/10/1937 12:00,1267.78
6/11/1937 12:00,1267.82
6/12/1937 12:00,1267.44
6/13/1937 12:00,1267.48
6/14/1937 12:00,1267.72
6/15/1937 12:00,1267.64
6/16/1937 12:00,1267.82
6/17/1937 12:00,1267.72
6/18/1937 12:00,1267.28
6/19/1937 12:00,1267.26
6/20/1937 12:00,1266.82
6/21/1937 12:00,1267.30
6/22/1937 12:00,1267.46
6/23/1937 12:00,1267.14
6/24/1937 12:00,1267.16
6/25/1937 12:00,1267.19
6/26/1937 12:00,1267.14
6/27/1937 12:00,1267.12
6/28/1937 12:00,1267.07
6/29/1937 12:00,1267.02
6/30/1937 12:00,1266.96
7/1/1937 12:00,1266.92
7/2/1937 12:00,1266.87
7/3/1937 12:00,1266.85
7/4/1937 12:00,1266.71
7/5/1937 12:00,1266.79
7/6/1937 12:00,1267.31
7/7/1937 12:00,1267.28
7/8/1937 12:00,1267.37
7/9/1937 12:00,1267.56
7/10/1937 12:00,1267.58
7/11/1937 12:00,1267.47
7/12/1937 12:00,1267.88
7/13/1937 12:00,1267.70
7/14/1937 12:00,1267.58
7/15/1937 12:00,1267.62
7/16/1937 12:00,1267.69
7/17/1937 12:00,1267.67
7/18/1937 12:00,1267.65
7/19/1937 12:00,1267.79
7/20/1937 12:00,1267.77
7/21/1937 12:00,1267.59
7/22/1937 12:00,1267.80
7/23/1937 12:00,1267.44
7/24/1937 12:00,1267.40
7/25/1937 12:00,1267.00
7/26/1937 12:00,1267.69
7/27/1937 12:00,1267.48
7/28/1937 12:00,1267.77
7/29/1937 12:00,1267.77
7/30/1937 12:00,1267.68
8/1/1937 12:00,1266.88
8/2/1937 12:00,1267.12
8/3/1937 12:00,1266.37
8/4/1937 12:00,1266.44
8/5/1937 12:00,1266.39
8/6/1937 12:00,1266.12
8/7/1937 12:00,1266.07
8/8/1937 12:00,1266.22
8/9/1937 12:00,1266.23
8/10/1937 12:00,1266.34
8/11/1937 12:00,1266.16
8/12/1937 12:00,1266.20
8/13/1937 12:00,1266.30
8/14/1937 12:00,1266.20
8/15/1937 12:00,1266.17
8/16/1937 12:00,1266.36
8/17/1937 12:00,1266.19
8/18/1937 12:00,1266.07
8/19/1937 12:00,1266.10
8/20/1937 12:00,1266.18
8/21/1937 12:00,1266.29